sat.trackr.live / text

‹ back to catalog

STARLINK-11695 [DTC]

NORAD 63551 · 2025-075D

PAYLOAD ACTIVE UNKNOWN

§ Identity

Operator
Country
US
Launch date
2025-04-13
Launch site
AFETR
Launch vehicle
Mass (kg)
RCS (m²)

Purposes: comms

External: N2YO · Heavens-Above · Gunter

§ Orbital elements

Epoch: 2026-09-19T17:56:34.892448Z

Period
91.67 min
Inclination
42.9998°
Eccentricity
0.0001519
Mean motion
15.70850456 rev/d
Perigee alt
355.4 km
Apogee alt
357.5 km
Semi-major
6,734.6 km
B*
1.3382e-3
RAAN
63.6600°
Arg perigee
247.0551°
Mean anomaly
113.0156°
Rev number
8,377

§ Raw data

STARLINK-11695 [DTC]1 63551U 25075D   26262.74762607  .00174995  00000+0  13382-2 0  99992 63551  42.9998  63.6600 0001519 247.0551 113.0156 15.70850456 83777

JSON: /api/v1/satellites/63551 · /tle

For live sub-satellite position, see the globe view (requires WebGL).

§ Visibility from observer

Set your observer location to see the next 7 days of passes ≥ 10°. The values pass through the URL so the page stays shareable.

No JS? Fill the form by hand. The geolocation button needs JavaScript.